ARIANE 2 DEB, 27046

Orbit data source: Space-Track

ARIANE 2 DEB, 27046 is space debris in HEO originally from a launch on Fri, 27 Jan 1989 UTC launched from the French Guiana (FRGUI). Debris objects in space refer to the collection of defunct objects orbiting the Earth. Examples of debris include non-operational satellites, rocket bodies, and fragments generated from explosions, collisions, or faulty payload assembly.

Loading next visibility...
Identifier
27046, 1989-006AB
Orbit
HEO
Country
Flag of FRFR
Related business
Manufacturer
EADS/LV
Mission
Spacecraft
Bus & Motor
Unknown
Mass
Unknown
Launch date (UTC)
1989-01-27 (37 years ago)
Launch vehicle
Unknown
Launch site
French Guiana (FRGUI)
Object type
Payload
Rocket body
Debris
Shape & HBR
Unknown shape, 0.6 m
Radar Cross Section
Medium (>0.1 m² and <1 m²)

Expand to show TLE details & history
Last TLE update: 12 hours ago

TLE from 12 hours ago
0 ARIANE 2 DEB
1 27046U 89006AB  26046.08775964 -.00000313  00000-0 -11081-1 0  9997
2 27046   8.1001  35.1093 7080916 172.6119 262.8701  2.24265931109011
Epoch: 2026-02-15T02:06Z
TLE epoch observation values (Epoch: 2026-02-15T02:06:22.432Z)
Latitude
2.09405°
Longitude
-126.67135°
Altitude
29,157.672 km
Speed
2.503 km/s
True Right ascension
03h 20m 05s
True Declination
2° 05' 30"
Sunlit
Object was in daylight at epoch
Visualization orbit readout
Latitude
Unknown
Longitude
Unknown
Altitude
Unknown
Speed
Unknown
Apparent Right ascension
Unknown
Apparent Declination
Unknown
Sunlit
N/A
Visualization observer readout
Local Sidereal Time
17:09:59
Azimuth
Unknown
Elevation
Unknown
Doppler factor
Unknown
Orbital elements
Apogee altitude
35,742.13 km
Perigee altitude
820.107 km
Semi-major axis
24,659.255 km
Eccentricity
0.70809
Inclination
8.1001°
RAAN
35.1093°
Arg. of periapsis
172.6119°
True anomaly
202.42435°
Mean anomaly
262.8701°
Eccentric anomaly
231.23592°
Mean motion
0.5605 °/min
Orbital period
642.29 mins
BSTAR
-0.011081
Loading maneuver chart data...
Computing Atmospheric mass density...
Loading historical data...
Loading historical data...
Loading historical data...
Loading historical data...
Loading historical data...
Loading historical data...
Loading historical data...

Documentation

Showing up to 5 results
|